Location: Bidart
(43.4376°N, 1.5913°W)
Time: 13:39:17
(UTC+00:00)

ISS - Pass Details

Date: 25 January 2026
Orbit: 413 x 429 km, 51.6° (Epoch: 11 February)

Event Time Altitude Azimuth Distance (km) Brightness Sun altitude
Rises 17:42:05 0° 302° (WNW) 2,363 0.7 -6.5°
Reaches altitude 10° 17:44:27 10° 316° (NW) 1,501 -0.6 -6.9°
Maximum altitude 17:47:15 24° 13° (NNE) 923 -2.3 -7.3°
Enters shadow 17:50:00 10° 69° (ENE) 1,483 -1.7 -7.8°
